World > North America > United States > New York

Hourly Wurtsboro, NY Regional Weather

Feedback E-mail the Weather

Latest News

Wurtsboro, NY Weather Maps

°F °C°F °C
Wurtsboro Weather Map
UTC Time: 5/21/2022, 03:17
Your Time:

Wurtsboro, NY Regional Weather

Expires:202205210400;;305011
ASUS41 KBGM 210310
RWRBGM

REGIONAL WEATHER ROUNDUP
NATIONAL WEATHER SERVICE BINGHAMTON NY
1100 PM EDT FRI MAY 20 2022

Note: "fair" indicates few or no clouds below 12,000 feet with no
significant weather and/or obstructions to visibility.

* = Station(s) that does not report precipitation, such as rain, 
snow, etc, also no thunder or fog.


NYZ009-015>018-022>025-036-037-044>046-055>057-062-210400
...Central New York...
  
CITY           SKY/WX    TMP DP  RH WIND       PRES   REMARKS
Binghamton     MOCLDY    63  61  93 S10       29.89S                  
Cortland       FAIR      68  61  77 CALM      29.89R                  
Dansville      MOCLDY    70  64  81 S3        29.81R                  
Elmira         MOCLDY    69  63  81 CALM      29.85R                  
Endicott       FAIR      64  64 100 CALM      29.87F                  
Ithaca         MOCLDY    68  65  90 SE7       29.87R                  
Hamilton       FAIR      66  61  82 S6        29.90R                  
Monticello     LGT RAIN  61  61 100 E5        29.97S FOG              
Norwich        FAIR      64  63  94 S5        29.92R                  
Oneonta        FAIR      64  61  88 SW5       29.92S                  
Penn Yan       MOCLDY    68  62  81 S5        29.84R                  
Rome           CLEAR     69  62  78 SE6       29.87R                  
Seneca Falls   FAIR      68  63  83 S10       29.83R                  
Sidney         FAIR      66  63  88 S5        29.90F                  
Skaneateles    FAIR      72  66  83 VRB5      29.85R                  
Syracuse       MOCLDY    71  62  73 S8        29.83R                  
$$
 

SKY/WX - Weather  TMP - Temperature  DP - Dew Point  RH - Humidity
WIND - Wind Direction/Speed PRES - Barometric Pressure VSB - Visibility
WCI - Wind Chill Index E13G22 Wind - East Wind 13 mph/Gusts of 22 mph

Trending Headlines

Wurtsboro Radar Loop



Wurtsboro Quick Facts


National Two Day Weather Forecast


E-mail the Wurtsboro Weather Forecast

Voice your opinion or tell us about page issues...